Time,TemperatureF,DewpointF,PressureIn,WindDirection,WindDirectionDegrees,WindSpeedMPH,WindSpeedGustMPH,Humidity,HourlyPrecipIn,Conditions,Clouds,dailyrainin,SoftwareType,DateUTC
2013-04-11 00:04:00,48.7,47.1,29.85,North,-999,0.0,3.1,94,0.00,,,-99.99,FreeWX-Wi 1.02,2013-04-11 04:04:00,
2013-04-11 00:09:00,48.7,47.3,29.85,North,-999,0.0,3.6,95,0.00,,,-99.99,FreeWX-Wi 1.02,2013-04-11 04:09:00,
2013-04-11 00:14:00,48.6,47.1,29.85,North,-999,0.0,0.0,95,0.00,,,-99.99,FreeWX-Wi 1.02,2013-04-11 04:14:00,
2013-04-11 00:19:00,48.6,47.5,29.85,North,-999,0.0,0.0,96,0.00,,,-99.99,FreeWX-Wi 1.02,2013-04-11 04:19:00,
2013-04-11 00:24:00,48.6,47.7,29.85,North,-999,0.0,0.0,97,0.00,,,-99.99,FreeWX-Wi 1.02,2013-04-11 04:24:00,
2013-04-11 00:29:00,48.6,47.7,29.85,North,-999,0.0,0.0,97,0.00,,,-99.99,FreeWX-Wi 1.02,2013-04-11 04:29:00,
2013-04-11 00:34:00,48.6,47.7,29.85,North,-999,0.0,0.0,97,0.00,,,-99.99,FreeWX-Wi 1.02,2013-04-11 04:34:00,
2013-04-11 00:39:00,48.4,47.3,29.85,North,-999,0.0,0.0,96,0.00,,,-99.99,FreeWX-Wi 1.02,2013-04-11 04:39:00,
2013-04-11 00:44:00,48.2,47.1,29.85,North,-999,0.0,0.0,96,0.00,,,-99.99,FreeWX-Wi 1.02,2013-04-11 04:44:00,
2013-04-11 00:49:00,48.2,47.1,29.85,North,-999,0.0,0.0,96,0.00,,,-99.99,FreeWX-Wi 1.02,2013-04-11 04:49:00,
2013-04-11 00:54:00,48.2,47.1,29.85,North,-999,0.0,0.0,96,0.00,,,-99.99,FreeWX-Wi 1.02,2013-04-11 04:54:00,
2013-04-11 00:59:00,48.2,47.1,29.82,North,-999,0.0,0.0,96,0.00,,,-99.99,FreeWX-Wi 1.02,2013-04-11 04:59:00,
2013-04-11 01:04:00,48.0,47.1,29.82,North,-999,0.0,0.0,97,0.00,,,-99.99,FreeWX-Wi 1.02,2013-04-11 05:04:00,
2013-04-11 01:09:00,48.0,47.1,29.82,North,-999,0.0,0.0,97,0.00,,,-99.99,FreeWX-Wi 1.02,2013-04-11 05:09:00,
2013-04-11 01:14:00,48.0,47.1,29.82,North,-999,0.0,0.0,97,0.00,,,-99.99,FreeWX-Wi 1.02,2013-04-11 05:14:00,
2013-04-11 01:19:00,48.0,47.1,29.82,North,-999,0.0,0.0,97,0.00,,,-99.99,FreeWX-Wi 1.02,2013-04-11 05:19:00,
2013-04-11 01:24:00,48.0,47.1,29.82,North,-999,0.0,0.0,97,0.00,,,-99.99,FreeWX-Wi 1.02,2013-04-11 05:24:00,
2013-04-11 01:29:00,48.0,47.1,29.82,North,-999,0.0,0.0,97,0.00,,,-99.99,FreeWX-Wi 1.02,2013-04-11 05:29:00,
2013-04-11 01:34:00,48.2,47.3,29.82,North,-999,0.0,0.0,97,0.00,,,-99.99,FreeWX-Wi 1.02,2013-04-11 05:34:00,
2013-04-11 01:39:00,48.2,47.3,29.82,North,-999,0.0,0.0,97,0.00,,,-99.99,FreeWX-Wi 1.02,2013-04-11 05:39:00,
2013-04-11 01:44:00,48.2,47.3,29.82,North,-999,0.0,0.0,97,0.00,,,-99.99,FreeWX-Wi 1.02,2013-04-11 05:44:00,
2013-04-11 01:49:00,48.2,47.3,29.82,North,-999,0.0,0.0,97,0.00,,,-99.99,FreeWX-Wi 1.02,2013-04-11 05:49:00,
2013-04-11 01:54:00,48.2,47.3,29.82,North,-999,0.0,0.0,97,0.00,,,-99.99,FreeWX-Wi 1.02,2013-04-11 05:54:00,
2013-04-11 01:59:00,48.2,47.3,29.82,North,-999,0.0,0.0,97,0.00,,,-99.99,FreeWX-Wi 1.02,2013-04-11 05:59:00,
2013-04-11 02:04:00,48.2,47.3,29.82,North,-999,0.0,0.0,97,0.00,,,-99.99,FreeWX-Wi 1.02,2013-04-11 06:04:00,
2013-04-11 02:09:00,48.4,47.5,29.82,North,-999,0.0,0.0,97,0.00,,,-99.99,FreeWX-Wi 1.02,2013-04-11 06:09:00,
2013-04-11 02:14:00,48.4,47.5,29.82,North,-999,0.0,0.0,97,0.00,,,-99.99,FreeWX-Wi 1.02,2013-04-11 06:14:00,
2013-04-11 02:19:00,48.6,47.7,29.82,North,-999,0.0,0.0,97,0.00,,,-99.99,FreeWX-Wi 1.02,2013-04-11 06:19:00,
2013-04-11 02:24:00,48.6,47.5,29.82,North,-999,0.0,0.0,96,0.00,,,-99.99,FreeWX-Wi 1.02,2013-04-11 06:24:00,
2013-04-11 02:29:00,48.6,47.5,29.82,North,-999,0.0,0.0,96,0.00,,,-99.99,FreeWX-Wi 1.02,2013-04-11 06:29:00,
2013-04-11 02:34:00,48.6,47.5,29.82,North,-999,0.0,0.0,96,0.00,,,-99.99,FreeWX-Wi 1.02,2013-04-11 06:34:00,
2013-04-11 02:39:00,48.6,47.5,29.82,North,-999,0.0,0.0,96,0.00,,,-99.99,FreeWX-Wi 1.02,2013-04-11 06:39:00,
2013-04-11 02:44:00,48.6,47.5,29.82,North,-999,0.0,0.0,96,0.00,,,-99.99,FreeWX-Wi 1.02,2013-04-11 06:44:00,
2013-04-11 02:49:00,48.7,47.7,29.82,North,-999,0.0,0.0,96,0.00,,,-99.99,FreeWX-Wi 1.02,2013-04-11 06:49:00,
2013-04-11 02:54:00,48.7,47.7,29.82,North,-999,0.0,0.0,96,0.00,,,-99.99,FreeWX-Wi 1.02,2013-04-11 06:54:00,
2013-04-11 02:59:00,48.7,47.7,29.79,North,-999,0.0,0.0,96,0.00,,,-99.99,FreeWX-Wi 1.02,2013-04-11 06:59:00,
2013-04-11 03:04:00,48.7,47.7,29.79,North,-999,0.0,0.0,96,0.00,,,-99.99,FreeWX-Wi 1.02,2013-04-11 07:04:00,
2013-04-11 03:09:00,48.7,47.7,29.79,North,-999,0.0,0.0,96,0.00,,,-99.99,FreeWX-Wi 1.02,2013-04-11 07:09:00,
2013-04-11 03:14:00,48.9,48.0,29.79,North,-999,0.0,0.0,97,0.00,,,-99.99,FreeWX-Wi 1.02,2013-04-11 07:14:00,
2013-04-11 03:19:00,48.9,48.0,29.79,North,-999,0.0,0.0,97,0.00,,,-99.99,FreeWX-Wi 1.02,2013-04-11 07:19:00,
2013-04-11 03:24:00,49.1,48.2,29.79,North,-999,0.0,0.0,97,0.00,,,-99.99,FreeWX-Wi 1.02,2013-04-11 07:24:00,
2013-04-11 03:29:00,49.1,49.1,29.82,North,-999,0.0,0.0,100,0.00,,,-99.99,FreeWX-Wi 1.02,2013-04-11 07:29:00,
2013-04-11 03:34:00,49.1,49.1,29.82,North,-999,0.0,0.0,100,0.00,,,-99.99,FreeWX-Wi 1.02,2013-04-11 07:34:00,
2013-04-11 03:39:00,49.3,49.3,29.82,North,-999,0.0,0.0,100,0.00,,,-99.99,FreeWX-Wi 1.02,2013-04-11 07:39:00,
2013-04-11 03:44:00,49.3,49.3,29.82,North,-999,0.0,0.0,100,0.00,,,-99.99,FreeWX-Wi 1.02,2013-04-11 07:44:00,
2013-04-11 03:49:00,49.6,49.6,29.82,North,-999,0.0,0.0,100,0.00,,,-99.99,FreeWX-Wi 1.02,2013-04-11 07:49:00,
2013-04-11 03:54:00,49.6,49.6,29.82,North,-999,0.0,0.0,100,0.00,,,-99.99,FreeWX-Wi 1.02,2013-04-11 07:54:00,
2013-04-11 03:59:00,49.6,49.6,29.82,North,-999,0.0,0.0,100,0.00,,,-99.99,FreeWX-Wi 1.02,2013-04-11 07:59:00,
2013-04-11 04:04:00,49.8,49.8,29.82,North,-999,0.0,0.0,100,0.00,,,-99.99,FreeWX-Wi 1.02,2013-04-11 08:04:00,
2013-04-11 04:09:00,49.8,49.8,29.82,North,-999,0.0,0.0,100,0.00,,,-99.99,FreeWX-Wi 1.02,2013-04-11 08:09:00,
2013-04-11 04:14:00,50.0,50.0,29.82,North,-999,0.0,0.0,100,0.00,,,-99.99,FreeWX-Wi 1.02,2013-04-11 08:14:00,
2013-04-11 04:19:00,50.2,50.2,29.82,North,-999,0.0,0.0,100,0.00,,,-99.99,FreeWX-Wi 1.02,2013-04-11 08:19:00,
2013-04-11 04:24:00,50.4,50.4,29.82,North,-999,0.0,0.0,100,0.00,,,-99.99,FreeWX-Wi 1.02,2013-04-11 08:24:00,
2013-04-11 04:29:00,50.4,50.4,29.82,North,-999,0.0,2.2,100,0.00,,,-99.99,FreeWX-Wi 1.02,2013-04-11 08:29:00,
2013-04-11 04:34:00,50.5,50.5,29.82,North,-999,0.0,0.0,100,0.00,,,-99.99,FreeWX-Wi 1.02,2013-04-11 08:34:00,
2013-04-11 04:39:00,50.7,50.7,29.82,North,-999,0.0,0.0,100,0.00,,,-99.99,FreeWX-Wi 1.02,2013-04-11 08:39:00,
2013-04-11 04:44:00,50.7,50.7,29.82,North,-999,0.0,0.0,100,0.00,,,-99.99,FreeWX-Wi 1.02,2013-04-11 08:44:00,
2013-04-11 04:49:00,50.7,50.7,29.82,North,-999,0.0,2.7,100,0.00,,,-99.99,FreeWX-Wi 1.02,2013-04-11 08:49:00,
2013-04-11 04:54:00,50.5,50.5,29.82,North,-999,0.0,2.7,100,0.00,,,-99.99,FreeWX-Wi 1.02,2013-04-11 08:54:00,
2013-04-11 04:59:00,50.4,48.9,29.82,North,-999,0.0,2.7,95,0.00,,,-99.99,FreeWX-Wi 1.02,2013-04-11 08:59:00,
2013-04-11 05:04:00,50.4,48.7,29.82,North,-999,0.0,5.4,94,0.00,,,-99.99,FreeWX-Wi 1.02,2013-04-11 09:04:00,
2013-04-11 05:09:00,50.4,47.8,29.82,North,-999,0.0,3.1,91,0.00,,,-99.99,FreeWX-Wi 1.02,2013-04-11 09:09:00,
2013-04-11 05:14:00,50.4,47.5,29.85,North,-999,0.0,3.1,90,0.00,,,-99.99,FreeWX-Wi 1.02,2013-04-11 09:14:00,
2013-04-11 05:19:00,50.5,47.5,29.85,North,-999,0.0,3.6,89,0.00,,,-99.99,FreeWX-Wi 1.02,2013-04-11 09:19:00,
2013-04-11 05:24:00,50.5,47.7,29.85,North,-999,0.0,2.7,90,0.00,,,-99.99,FreeWX-Wi 1.02,2013-04-11 09:24:00,
2013-04-11 05:29:00,50.5,47.7,29.85,NNW,343,1.0,3.6,90,0.00,,,-99.99,FreeWX-Wi 1.02,2013-04-11 09:29:00,
2013-04-11 05:34:00,50.5,47.7,29.85,North,-999,0.0,3.1,90,0.00,,,-99.99,FreeWX-Wi 1.02,2013-04-11 09:34:00,
2013-04-11 05:39:00,50.4,47.5,29.85,North,-999,0.0,3.1,90,0.00,,,-99.99,FreeWX-Wi 1.02,2013-04-11 09:39:00,
2013-04-11 05:44:00,50.4,46.9,29.85,NNW,344,1.0,4.0,88,0.00,,,-99.99,FreeWX-Wi 1.02,2013-04-11 09:44:00,
2013-04-11 05:50:00,50.2,46.2,29.85,NNW,344,1.0,4.0,86,0.00,,,-99.99,FreeWX-Wi 1.02,2013-04-11 09:50:00,
2013-04-11 05:55:00,50.2,45.5,29.85,NNW,346,1.0,4.0,84,0.00,,,-99.99,FreeWX-Wi 1.02,2013-04-11 09:55:00,
2013-04-11 06:00:00,50.2,45.1,29.88,NNW,346,1.0,4.0,83,0.00,,,-99.99,FreeWX-Wi 1.02,2013-04-11 10:00:00,
2013-04-11 06:05:00,50.0,44.8,29.88,NNW,345,1.0,4.9,82,0.00,,,-99.99,FreeWX-Wi 1.02,2013-04-11 10:05:00,
2013-04-11 06:10:00,50.0,44.4,29.88,NNW,343,1.0,3.1,81,0.00,,,-99.99,FreeWX-Wi 1.02,2013-04-11 10:10:00,
2013-04-11 06:15:00,49.8,43.5,29.88,North,349,1.0,4.0,79,0.00,,,-99.99,FreeWX-Wi 1.02,2013-04-11 10:15:00,
2013-04-11 06:20:00,49.6,43.0,29.88,NNW,348,1.0,4.9,78,0.00,,,-99.99,FreeWX-Wi 1.02,2013-04-11 10:20:00,
2013-04-11 06:25:00,49.6,42.4,29.88,North,351,2.0,5.8,76,0.00,,,-99.99,FreeWX-Wi 1.02,2013-04-11 10:25:00,
2013-04-11 06:30:00,49.6,42.4,29.88,North,356,2.0,3.6,76,0.00,,,-99.99,FreeWX-Wi 1.02,2013-04-11 10:30:00,
2013-04-11 06:35:00,49.5,42.3,29.88,North,353,2.0,4.0,76,0.00,,,-99.99,FreeWX-Wi 1.02,2013-04-11 10:35:00,
2013-04-11 06:40:00,49.5,41.9,29.91,North,355,2.0,3.6,75,0.00,,,-99.99,FreeWX-Wi 1.02,2013-04-11 10:40:00,
2013-04-11 06:45:00,49.5,42.3,29.91,North,349,1.0,3.6,76,0.00,,,-99.99,FreeWX-Wi 1.02,2013-04-11 10:45:00,
2013-04-11 06:50:00,49.6,42.1,29.91,North,352,1.0,4.0,75,0.00,,,-99.99,FreeWX-Wi 1.02,2013-04-11 10:50:00,
2013-04-11 06:55:00,49.6,41.7,29.91,NNW,348,1.0,3.1,74,0.00,,,-99.99,FreeWX-Wi 1.02,2013-04-11 10:55:00,
2013-04-11 07:00:00,49.8,41.5,29.91,NNW,345,1.0,5.4,73,0.00,,,-99.99,FreeWX-Wi 1.02,2013-04-11 11:00:00,
2013-04-11 07:05:00,50.0,41.4,29.91,NNW,345,1.0,5.8,72,0.00,,,-99.99,FreeWX-Wi 1.02,2013-04-11 11:05:00,
2013-04-11 07:10:00,50.2,40.8,29.91,NNW,344,1.0,4.0,70,0.00,,,-99.99,FreeWX-Wi 1.02,2013-04-11 11:10:00,
2013-04-11 07:15:00,49.8,38.8,29.91,NNW,343,1.0,4.0,66,0.00,,,-99.99,FreeWX-Wi 1.02,2013-04-11 11:15:00,
2013-04-11 07:20:00,50.0,39.6,29.91,NNW,340,1.0,5.4,67,0.00,,,-99.99,FreeWX-Wi 1.02,2013-04-11 11:20:00,
2013-04-11 07:25:00,49.8,39.4,29.94,NNW,341,2.0,3.1,67,0.00,,,-99.99,FreeWX-Wi 1.02,2013-04-11 11:25:00,
2013-04-11 07:30:00,49.8,39.7,29.94,NNW,345,1.0,0.0,68,0.00,,,-99.99,FreeWX-Wi 1.02,2013-04-11 11:30:00,
2013-04-11 07:35:00,49.8,39.7,29.94,NNW,347,1.0,3.6,68,0.00,,,-99.99,FreeWX-Wi 1.02,2013-04-11 11:35:00,
2013-04-11 07:40:00,50.0,39.0,29.91,North,350,1.0,3.6,66,0.00,,,-99.99,FreeWX-Wi 1.02,2013-04-11 11:40:00,
2013-04-11 07:45:00,50.0,38.3,29.91,North,352,1.0,4.0,64,0.00,,,-99.99,FreeWX-Wi 1.02,2013-04-11 11:45:00,
2013-04-11 07:50:00,50.2,38.1,29.91,North,352,1.0,4.9,63,0.00,,,-99.99,FreeWX-Wi 1.02,2013-04-11 11:50:00,
2013-04-11 07:55:00,50.2,37.2,29.94,North,357,1.0,5.4,61,0.00,,,-99.99,FreeWX-Wi 1.02,2013-04-11 11:55:00,
2013-04-11 08:00:00,50.0,37.0,29.94,North,0,2.0,4.0,61,0.00,,,-99.99,FreeWX-Wi 1.02,2013-04-11 12:00:00,
2013-04-11 08:05:00,50.0,37.6,29.94,North,5,2.0,4.0,62,0.00,,,-99.99,FreeWX-Wi 1.02,2013-04-11 12:05:00,
2013-04-11 08:10:00,50.2,37.2,29.91,North,3,2.0,4.0,61,0.00,,,-99.99,FreeWX-Wi 1.02,2013-04-11 12:10:00,
2013-04-11 08:15:00,50.2,36.5,29.91,North,9,2.0,4.0,59,0.00,,,-99.99,FreeWX-Wi 1.02,2013-04-11 12:15:00,
2013-04-11 08:20:00,50.7,36.9,29.91,NNE,18,2.0,0.0,59,0.00,,,-99.99,FreeWX-Wi 1.02,2013-04-11 12:20:00,
2013-04-11 08:25:00,51.3,37.0,29.94,NNE,16,2.0,3.1,58,0.00,,,-99.99,FreeWX-Wi 1.02,2013-04-11 12:25:00,
2013-04-11 08:30:00,51.3,36.1,29.94,NNE,15,2.0,4.9,56,0.00,,,-99.99,FreeWX-Wi 1.02,2013-04-11 12:30:00,
2013-04-11 08:35:00,51.4,36.3,29.94,NNE,12,2.0,4.0,56,0.00,,,-99.99,FreeWX-Wi 1.02,2013-04-11 12:35:00,
2013-04-11 08:40:00,51.6,36.0,29.94,NNE,12,2.0,3.6,55,0.00,,,-99.99,FreeWX-Wi 1.02,2013-04-11 12:40:00,
2013-04-11 08:45:00,51.1,35.1,29.94,North,7,2.0,4.9,54,0.00,,,-99.99,FreeWX-Wi 1.02,2013-04-11 12:45:00,
2013-04-11 08:50:00,50.9,34.3,29.94,North,4,2.0,5.8,53,0.00,,,-99.99,FreeWX-Wi 1.02,2013-04-11 12:50:00,
2013-04-11 08:55:00,51.3,34.7,29.94,North,10,2.0,4.0,53,0.00,,,-99.99,FreeWX-Wi 1.02,2013-04-11 12:55:00,
2013-04-11 09:00:00,51.4,35.4,29.94,North,8,2.0,4.0,54,0.00,,,-99.99,FreeWX-Wi 1.02,2013-04-11 13:00:00,
2013-04-11 09:05:00,51.6,35.1,29.94,North,9,2.0,5.4,53,0.00,,,-99.99,FreeWX-Wi 1.02,2013-04-11 13:05:00,
2013-04-11 09:10:00,51.3,34.2,29.97,North,8,2.0,4.0,52,0.00,,,-99.99,FreeWX-Wi 1.02,2013-04-11 13:10:00,
2013-04-11 09:15:00,51.1,34.2,29.97,North,9,2.0,4.9,52,0.00,,,-99.99,FreeWX-Wi 1.02,2013-04-11 13:15:00,
2013-04-11 09:20:00,51.1,34.2,29.97,North,11,2.0,4.0,52,0.00,,,-99.99,FreeWX-Wi 1.02,2013-04-11 13:20:00,
2013-04-11 09:25:00,51.3,34.7,29.97,North,4,2.0,3.6,53,0.00,,,-99.99,FreeWX-Wi 1.02,2013-04-11 13:25:00,
2013-04-11 09:30:00,51.6,34.5,29.97,North,7,2.0,4.0,52,0.00,,,-99.99,FreeWX-Wi 1.02,2013-04-11 13:30:00,
2013-04-11 09:35:00,52.3,34.7,29.97,North,8,2.0,4.0,51,0.00,,,-99.99,FreeWX-Wi 1.02,2013-04-11 13:35:00,
2013-04-11 09:40:00,53.8,33.4,29.94,NNE,14,2.0,5.8,46,0.00,,,-99.99,FreeWX-Wi 1.02,2013-04-11 13:40:00,
2013-04-11 09:45:00,54.5,31.8,29.94,NNE,14,2.0,4.9,42,0.00,,,-99.99,FreeWX-Wi 1.02,2013-04-11 13:45:00,
2013-04-11 09:50:00,55.4,31.5,29.94,North,4,2.0,4.0,40,0.00,,,-99.99,FreeWX-Wi 1.02,2013-04-11 13:50:00,
2013-04-11 09:55:00,56.3,30.4,29.94,North,2,2.0,5.4,37,0.00,,,-99.99,FreeWX-Wi 1.02,2013-04-11 13:55:00,
2013-04-11 10:00:00,57.2,29.1,29.94,North,359,2.0,4.0,34,0.00,,,-99.99,FreeWX-Wi 1.02,2013-04-11 14:00:00,
2013-04-11 10:05:00,57.6,25.5,29.94,North,4,2.0,5.4,29,0.00,,,-99.99,FreeWX-Wi 1.02,2013-04-11 14:05:00,
2013-04-11 10:10:00,58.1,24.3,29.94,North,0,2.0,5.4,27,0.00,,,-99.99,FreeWX-Wi 1.02,2013-04-11 14:10:00,
2013-04-11 10:15:00,57.9,24.1,29.94,North,4,2.0,6.3,27,0.00,,,-99.99,FreeWX-Wi 1.02,2013-04-11 14:15:00,
2013-04-11 10:20:00,57.9,24.1,29.94,North,10,3.0,5.8,27,0.00,,,-99.99,FreeWX-Wi 1.02,2013-04-11 14:20:00,
2013-04-11 10:25:00,57.7,21.2,29.97,NNE,12,3.0,5.4,24,0.00,,,-99.99,FreeWX-Wi 1.02,2013-04-11 14:25:00,
2013-04-11 10:30:00,58.5,19.8,29.97,NNE,21,3.0,4.9,22,0.00,,,-99.99,FreeWX-Wi 1.02,2013-04-11 14:30:00,
2013-04-11 10:35:00,58.5,21.7,29.97,NNE,24,3.0,4.0,24,0.00,,,-99.99,FreeWX-Wi 1.02,2013-04-11 14:35:00,
2013-04-11 10:40:00,59.4,20.5,29.94,NNE,33,3.0,4.9,22,0.00,,,-99.99,FreeWX-Wi 1.02,2013-04-11 14:40:00,
2013-04-11 10:45:00,59.5,22.6,29.94,NNE,27,3.0,3.6,24,0.00,,,-99.99,FreeWX-Wi 1.02,2013-04-11 14:45:00,
2013-04-11 10:50:00,60.6,21.6,29.94,NNE,21,3.0,5.4,22,0.00,,,-99.99,FreeWX-Wi 1.02,2013-04-11 14:50:00,
2013-04-11 10:55:00,61.3,21.0,29.97,NNE,23,3.0,4.9,21,0.00,,,-99.99,FreeWX-Wi 1.02,2013-04-11 14:55:00,
2013-04-11 11:00:00,61.0,20.8,29.97,North,8,3.0,4.9,21,0.00,,,-99.99,FreeWX-Wi 1.02,2013-04-11 15:00:00,
2013-04-11 11:05:00,61.2,20.8,29.97,North,355,3.0,5.4,21,0.00,,,-99.99,FreeWX-Wi 1.02,2013-04-11 15:05:00,
2013-04-11 11:10:00,61.0,20.8,29.97,NNW,347,3.0,4.9,21,0.00,,,-99.99,FreeWX-Wi 1.02,2013-04-11 15:10:00,
2013-04-11 11:15:00,61.2,20.8,29.97,NNW,344,3.0,4.9,21,0.00,,,-99.99,FreeWX-Wi 1.02,2013-04-11 15:15:00,
2013-04-11 11:20:00,61.7,21.4,29.97,North,351,3.0,5.4,21,0.00,,,-99.99,FreeWX-Wi 1.02,2013-04-11 15:20:00,
2013-04-11 11:25:00,62.6,22.1,29.97,NNW,347,3.0,5.4,21,0.00,,,-99.99,FreeWX-Wi 1.02,2013-04-11 15:25:00,
2013-04-11 11:30:00,62.1,21.7,29.97,North,353,3.0,5.4,21,0.00,,,-99.99,FreeWX-Wi 1.02,2013-04-11 15:30:00,
2013-04-11 11:35:00,62.6,21.0,29.97,North,5,3.0,4.9,20,0.00,,,-99.99,FreeWX-Wi 1.02,2013-04-11 15:35:00,
2013-04-11 11:40:00,62.1,21.7,29.94,North,10,3.0,6.7,21,0.00,,,-99.99,FreeWX-Wi 1.02,2013-04-11 15:40:00,
2013-04-11 11:45:00,61.3,21.0,29.94,NNE,22,3.0,5.4,21,0.00,,,-99.99,FreeWX-Wi 1.02,2013-04-11 15:45:00,
2013-04-11 11:50:00,61.7,21.4,29.94,NNE,28,3.0,5.8,21,0.00,,,-99.99,FreeWX-Wi 1.02,2013-04-11 15:50:00,
2013-04-11 11:56:00,62.2,20.7,29.97,NE,35,3.0,4.9,20,0.00,,,-99.99,FreeWX-Wi 1.02,2013-04-11 15:56:00,
2013-04-11 12:01:00,64.4,21.2,29.97,NE,40,3.0,5.8,19,0.00,,,-99.99,FreeWX-Wi 1.02,2013-04-11 16:01:00,
2013-04-11 12:06:00,64.2,22.3,29.97,NE,36,3.0,5.8,20,0.00,,,-99.99,FreeWX-Wi 1.02,2013-04-11 16:06:00,
2013-04-11 12:11:00,65.1,21.9,29.97,NE,37,3.0,5.4,19,0.00,,,-99.99,FreeWX-Wi 1.02,2013-04-11 16:11:00,
2013-04-11 12:16:00,63.7,21.9,29.97,NE,36,3.0,5.4,20,0.00,,,-99.99,FreeWX-Wi 1.02,2013-04-11 16:16:00,
2013-04-11 12:21:00,64.0,22.1,29.97,NNE,32,3.0,6.3,20,0.00,,,-99.99,FreeWX-Wi 1.02,2013-04-11 16:21:00,
2013-04-11 12:26:00,64.9,21.7,29.97,NNE,24,3.0,6.3,19,0.00,,,-99.99,FreeWX-Wi 1.02,2013-04-11 16:26:00,
2013-04-11 12:31:00,64.2,22.3,29.97,NNE,17,3.0,5.8,20,0.00,,,-99.99,FreeWX-Wi 1.02,2013-04-11 16:31:00,
2013-04-11 12:36:00,65.1,21.9,29.97,NNE,22,3.0,3.6,19,0.00,,,-99.99,FreeWX-Wi 1.02,2013-04-11 16:36:00,
2013-04-11 12:41:00,65.3,21.9,29.97,NNE,17,3.0,5.4,19,0.00,,,-99.99,FreeWX-Wi 1.02,2013-04-11 16:41:00,
2013-04-11 12:46:00,66.7,23.2,29.97,NNE,15,3.0,5.8,19,0.00,,,-99.99,FreeWX-Wi 1.02,2013-04-11 16:46:00,
2013-04-11 12:51:00,67.6,23.9,29.97,NNE,13,3.0,4.9,19,0.00,,,-99.99,FreeWX-Wi 1.02,2013-04-11 16:51:00,
2013-04-11 12:56:00,71.2,25.5,29.97,NNE,18,2.0,5.4,18,0.00,,,-99.99,FreeWX-Wi 1.02,2013-04-11 16:56:00,
2013-04-11 13:06:00,64.6,21.4,29.97,North,9,2.0,4.0,19,0.00,,,-99.99,FreeWX-Wi 1.02,2013-04-11 17:06:00,
2013-04-11 13:11:00,64.0,22.1,29.97,NNE,16,2.0,5.4,20,0.00,,,-99.99,FreeWX-Wi 1.02,2013-04-11 17:11:00,
2013-04-11 13:16:00,64.2,22.3,29.97,NNE,14,2.0,4.0,20,0.00,,,-99.99,FreeWX-Wi 1.02,2013-04-11 17:16:00,
2013-04-11 13:21:00,61.5,20.1,29.97,NE,36,2.0,4.0,20,0.00,,,-99.99,FreeWX-Wi 1.02,2013-04-11 17:21:00,
2013-04-11 13:26:00,62.2,20.7,29.97,ENE,63,2.0,3.6,20,0.00,,,-99.99,FreeWX-Wi 1.02,2013-04-11 17:26:00,
2013-04-11 13:31:00,62.8,21.2,29.97,East,86,1.0,4.9,20,0.00,,,-99.99,FreeWX-Wi 1.02,2013-04-11 17:31:00,
2013-04-11 13:36:00,62.4,20.8,29.97,East,99,2.0,4.0,20,0.00,,,-99.99,FreeWX-Wi 1.02,2013-04-11 17:36:00,
2013-04-11 13:42:00,61.0,20.8,29.97,ESE,112,2.0,3.6,21,0.00,,,-99.99,FreeWX-Wi 1.02,2013-04-11 17:42:00,
2013-04-11 13:47:00,60.3,21.2,29.97,ESE,121,2.0,4.9,22,0.00,,,-99.99,FreeWX-Wi 1.02,2013-04-11 17:47:00,
2013-04-11 13:52:00,59.7,20.8,29.97,SE,130,2.0,4.5,22,0.00,,,-99.99,FreeWX-Wi 1.02,2013-04-11 17:52:00,
2013-04-11 13:57:00,59.4,20.5,29.97,SE,141,2.0,5.4,22,0.00,,,-99.99,FreeWX-Wi 1.02,2013-04-11 17:57:00,
2013-04-11 14:02:00,59.2,20.3,29.97,SSE,154,2.0,4.9,22,0.00,,,-99.99,FreeWX-Wi 1.02,2013-04-11 18:02:00,
2013-04-11 14:07:00,60.6,21.6,29.97,SSE,165,2.0,4.9,22,0.00,,,-99.99,FreeWX-Wi 1.02,2013-04-11 18:07:00,
2013-04-11 14:17:00,61.0,20.8,29.97,SSE,149,3.0,5.4,21,0.00,,,-99.99,FreeWX-Wi 1.02,2013-04-11 18:17:00,
2013-04-11 14:22:00,60.6,21.6,29.97,SE,140,3.0,4.9,22,0.00,,,-99.99,FreeWX-Wi 1.02,2013-04-11 18:22:00,
2013-04-11 14:27:00,60.4,21.4,29.97,ESE,123,3.0,4.9,22,0.00,,,-99.99,FreeWX-Wi 1.02,2013-04-11 18:27:00,
2013-04-11 14:32:00,59.4,20.5,29.97,ESE,113,3.0,5.8,22,0.00,,,-99.99,FreeWX-Wi 1.02,2013-04-11 18:32:00,
2013-04-11 14:37:00,59.2,22.5,29.97,ESE,114,3.0,5.8,24,0.00,,,-99.99,FreeWX-Wi 1.02,2013-04-11 18:37:00,
2013-04-11 14:42:00,58.8,22.1,29.97,ESE,111,3.0,5.8,24,0.00,,,-99.99,FreeWX-Wi 1.02,2013-04-11 18:42:00,
2013-04-11 14:47:00,58.1,24.3,29.97,ESE,113,3.0,5.4,27,0.00,,,-99.99,FreeWX-Wi 1.02,2013-04-11 18:47:00,
2013-04-11 14:52:00,57.7,24.1,29.97,ESE,117,3.0,5.8,27,0.00,,,-99.99,FreeWX-Wi 1.02,2013-04-11 18:52:00,
2013-04-11 14:57:00,57.2,23.5,29.97,SE,133,3.0,6.3,27,0.00,,,-99.99,FreeWX-Wi 1.02,2013-04-11 18:57:00,
2013-04-11 15:02:00,56.5,25.3,29.97,SE,142,3.0,6.3,30,0.00,,,-99.99,FreeWX-Wi 1.02,2013-04-11 19:02:00,
2013-04-11 15:07:00,54.9,26.2,29.97,SSE,154,3.0,6.3,33,0.00,,,-99.99,FreeWX-Wi 1.02,2013-04-11 19:07:00,
2013-04-11 15:12:00,54.1,30.9,29.97,SSE,167,4.0,6.3,41,0.00,,,-99.99,FreeWX-Wi 1.02,2013-04-11 19:12:00,
2013-04-11 15:17:00,54.1,30.9,29.97,SSE,163,4.0,8.1,41,0.00,,,-99.99,FreeWX-Wi 1.02,2013-04-11 19:17:00,
2013-04-11 15:22:00,54.1,30.9,29.97,SSE,153,3.0,4.0,41,0.00,,,-99.99,FreeWX-Wi 1.02,2013-04-11 19:22:00,
2013-04-11 15:27:00,53.4,30.4,29.97,SE,136,3.0,6.3,41,0.00,,,-99.99,FreeWX-Wi 1.02,2013-04-11 19:27:00,
2013-04-11 15:32:00,52.5,30.0,29.97,ESE,122,3.0,5.8,42,0.00,,,-99.99,FreeWX-Wi 1.02,2013-04-11 19:32:00,
2013-04-11 15:37:00,52.5,30.7,29.97,ESE,116,3.0,6.3,43,0.00,,,-99.99,FreeWX-Wi 1.02,2013-04-11 19:37:00,
2013-04-11 15:42:00,52.7,30.2,29.97,ESE,119,3.0,5.4,42,0.00,,,-99.99,FreeWX-Wi 1.02,2013-04-11 19:42:00,
2013-04-11 15:48:00,52.7,30.2,29.97,SE,129,3.0,6.3,42,0.00,,,-99.99,FreeWX-Wi 1.02,2013-04-11 19:48:00,
2013-04-11 15:53:00,52.7,30.2,29.97,SE,124,3.0,6.3,42,0.00,,,-99.99,FreeWX-Wi 1.02,2013-04-11 19:53:00,
2013-04-11 15:58:00,52.5,30.0,29.97,SE,126,3.0,5.8,42,0.00,,,-99.99,FreeWX-Wi 1.02,2013-04-11 19:58:00,
2013-04-11 16:03:00,52.7,30.2,29.97,SE,125,3.0,4.0,42,0.00,,,-99.99,FreeWX-Wi 1.02,2013-04-11 20:03:00,
2013-04-11 16:08:00,51.8,29.5,29.97,ESE,118,3.0,5.8,42,0.00,,,-99.99,FreeWX-Wi 1.02,2013-04-11 20:08:00,
2013-04-11 16:13:00,51.4,29.7,30.00,ESE,106,3.0,6.3,43,0.00,,,-99.99,FreeWX-Wi 1.02,2013-04-11 20:13:00,
2013-04-11 16:18:00,51.1,30.0,30.00,ESE,107,3.0,5.8,44,0.00,,,-99.99,FreeWX-Wi 1.02,2013-04-11 20:18:00,
2013-04-11 16:23:00,50.9,29.8,30.00,ESE,119,3.0,5.8,44,0.00,,,-99.99,FreeWX-Wi 1.02,2013-04-11 20:23:00,
2013-04-11 16:28:00,50.9,30.4,30.00,SE,131,3.0,5.8,45,0.00,,,-99.99,FreeWX-Wi 1.02,2013-04-11 20:28:00,
2013-04-11 16:33:00,51.3,30.0,30.00,SE,126,3.0,5.8,44,0.00,,,-99.99,FreeWX-Wi 1.02,2013-04-11 20:33:00,
2013-04-11 16:38:00,51.3,29.5,30.00,SE,136,3.0,6.3,43,0.00,,,-99.99,FreeWX-Wi 1.02,2013-04-11 20:38:00,
2013-04-11 16:43:00,51.4,29.7,30.00,SE,125,3.0,7.6,43,0.00,,,-99.99,FreeWX-Wi 1.02,2013-04-11 20:43:00,
2013-04-11 16:48:00,50.5,28.9,30.00,ESE,118,3.0,5.8,43,0.00,,,-99.99,FreeWX-Wi 1.02,2013-04-11 20:48:00,
2013-04-11 16:53:00,50.7,29.1,30.00,ESE,116,3.0,6.3,43,0.00,,,-99.99,FreeWX-Wi 1.02,2013-04-11 20:53:00,
2013-04-11 16:58:00,50.5,28.2,30.00,ESE,114,3.0,5.8,42,0.00,,,-99.99,FreeWX-Wi 1.02,2013-04-11 20:58:00,
2013-04-11 17:03:00,50.2,28.0,30.00,ESE,110,3.0,6.3,42,0.00,,,-99.99,FreeWX-Wi 1.02,2013-04-11 21:03:00,
2013-04-11 17:08:00,49.5,27.9,30.00,ESE,116,3.0,5.8,43,0.00,,,-99.99,FreeWX-Wi 1.02,2013-04-11 21:08:00,
2013-04-11 17:13:00,49.8,28.2,30.00,ESE,116,3.0,6.3,43,0.00,,,-99.99,FreeWX-Wi 1.02,2013-04-11 21:13:00,
2013-04-11 17:18:00,49.6,28.0,30.00,ESE,120,3.0,5.8,43,0.00,,,-99.99,FreeWX-Wi 1.02,2013-04-11 21:18:00,
2013-04-11 17:23:00,49.5,27.9,30.00,ESE,120,3.0,5.8,43,0.00,,,-99.99,FreeWX-Wi 1.02,2013-04-11 21:23:00,
2013-04-11 17:28:00,49.3,28.2,30.00,SE,129,3.0,4.0,44,0.00,,,-99.99,FreeWX-Wi 1.02,2013-04-11 21:28:00,
2013-04-11 17:33:00,49.3,27.7,30.00,SE,125,3.0,4.5,43,0.00,,,-99.99,FreeWX-Wi 1.02,2013-04-11 21:33:00,
2013-04-11 17:38:00,49.1,28.2,30.00,ESE,121,2.0,4.5,44,0.00,,,-99.99,FreeWX-Wi 1.02,2013-04-11 21:38:00,
2013-04-11 17:43:00,49.3,28.8,30.00,ESE,116,2.0,3.1,45,0.00,,,-99.99,FreeWX-Wi 1.02,2013-04-11 21:43:00,
2013-04-11 17:48:00,49.6,29.1,30.00,ESE,102,2.0,4.0,45,0.00,,,-99.99,FreeWX-Wi 1.02,2013-04-11 21:48:00,
2013-04-11 17:53:00,49.8,28.8,30.00,East,91,2.0,3.6,44,0.00,,,-99.99,FreeWX-Wi 1.02,2013-04-11 21:53:00,
2013-04-11 17:58:00,49.8,28.2,30.00,East,79,1.0,3.1,43,0.00,,,-99.99,FreeWX-Wi 1.02,2013-04-11 21:58:00,
2013-04-11 18:03:00,49.6,28.0,30.00,ENE,75,1.0,5.4,43,0.00,,,-99.99,FreeWX-Wi 1.02,2013-04-11 22:03:00,
2013-04-11 18:08:00,49.5,28.4,30.00,East,79,1.0,6.7,44,0.00,,,-99.99,FreeWX-Wi 1.02,2013-04-11 22:08:00,
2013-04-11 18:13:00,49.5,28.4,30.00,East,84,1.0,4.0,44,0.00,,,-99.99,FreeWX-Wi 1.02,2013-04-11 22:13:00,
2013-04-11 18:18:00,49.5,28.4,30.00,East,91,1.0,4.9,44,0.00,,,-99.99,FreeWX-Wi 1.02,2013-04-11 22:18:00,
2013-04-11 18:23:00,48.9,28.0,30.00,ESE,105,2.0,4.0,44,0.00,,,-99.99,FreeWX-Wi 1.02,2013-04-11 22:23:00,
2013-04-11 18:28:00,48.7,27.9,30.03,ESE,111,2.0,5.4,44,0.00,,,-99.99,FreeWX-Wi 1.02,2013-04-11 22:28:00,
2013-04-11 18:33:00,48.7,28.4,30.03,ESE,116,2.0,4.0,45,0.00,,,-99.99,FreeWX-Wi 1.02,2013-04-11 22:33:00,
2013-04-11 18:38:00,48.4,28.0,30.03,SE,124,2.0,4.0,45,0.00,,,-99.99,FreeWX-Wi 1.02,2013-04-11 22:38:00,
2013-04-11 18:43:00,48.0,27.7,30.03,SE,132,2.0,4.0,45,0.00,,,-99.99,FreeWX-Wi 1.02,2013-04-11 22:43:00,
2013-04-11 18:48:00,47.8,28.0,30.03,SE,139,2.0,5.4,46,0.00,,,-99.99,FreeWX-Wi 1.02,2013-04-11 22:48:00,
2013-04-11 18:53:00,47.7,27.9,30.03,SE,137,2.0,4.0,46,0.00,,,-99.99,FreeWX-Wi 1.02,2013-04-11 22:53:00,
2013-04-11 18:58:00,47.7,27.3,30.03,SE,143,2.0,4.0,45,0.00,,,-99.99,FreeWX-Wi 1.02,2013-04-11 22:58:00,
2013-04-11 19:03:00,47.7,27.3,30.03,SSE,147,2.0,4.0,45,0.00,,,-99.99,FreeWX-Wi 1.02,2013-04-11 23:03:00,
2013-04-11 19:08:00,47.7,26.8,30.03,SE,130,2.0,6.3,44,0.00,,,-99.99,FreeWX-Wi 1.02,2013-04-11 23:08:00,
2013-04-11 19:13:00,47.3,26.4,30.03,ESE,119,2.0,7.2,44,0.00,,,-99.99,FreeWX-Wi 1.02,2013-04-11 23:13:00,
2013-04-11 19:18:00,47.1,26.4,30.03,ESE,112,3.0,7.6,44,0.00,,,-99.99,FreeWX-Wi 1.02,2013-04-11 23:18:00,
2013-04-11 19:23:00,46.9,26.8,30.03,ESE,107,3.0,6.3,45,0.00,,,-99.99,FreeWX-Wi 1.02,2013-04-11 23:23:00,
2013-04-11 19:28:00,46.8,26.6,30.03,ESE,105,3.0,4.0,45,0.00,,,-99.99,FreeWX-Wi 1.02,2013-04-11 23:28:00,
2013-04-11 19:33:00,46.8,26.6,30.03,East,100,3.0,6.3,45,0.00,,,-99.99,FreeWX-Wi 1.02,2013-04-11 23:33:00,
2013-04-11 19:38:00,46.8,26.1,30.03,East,94,2.0,4.0,44,0.00,,,-99.99,FreeWX-Wi 1.02,2013-04-11 23:38:00,
2013-04-11 19:43:00,46.6,26.4,30.03,East,91,2.0,5.8,45,0.00,,,-99.99,FreeWX-Wi 1.02,2013-04-11 23:43:00,
2013-04-11 19:49:00,46.6,26.4,30.03,East,90,2.0,3.6,45,0.00,,,-99.99,FreeWX-Wi 1.02,2013-04-11 23:49:00,
2013-04-11 19:54:00,46.6,25.9,30.03,East,87,2.0,3.6,44,0.00,,,-99.99,FreeWX-Wi 1.02,2013-04-11 23:54:00,
2013-04-11 19:59:00,46.6,26.4,30.06,ENE,77,2.0,3.6,45,0.00,,,-99.99,FreeWX-Wi 1.02,2013-04-11 23:59:00,
2013-04-11 20:04:00,46.4,26.2,30.06,ENE,76,1.0,5.4,45,0.00,,,-99.99,FreeWX-Wi 1.02,2013-04-12 00:04:00,
2013-04-11 20:09:00,46.4,26.2,30.06,East,82,1.0,3.1,45,0.00,,,-99.99,FreeWX-Wi 1.02,2013-04-12 00:09:00,
2013-04-11 20:14:00,46.4,26.2,30.03,East,86,1.0,4.0,45,0.00,,,-99.99,FreeWX-Wi 1.02,2013-04-12 00:14:00,
2013-04-11 20:19:00,46.2,26.6,30.03,East,85,1.0,4.0,46,0.00,,,-99.99,FreeWX-Wi 1.02,2013-04-12 00:19:00,
2013-04-11 20:24:00,46.2,26.1,30.03,East,89,1.0,4.0,45,0.00,,,-99.99,FreeWX-Wi 1.02,2013-04-12 00:24:00,
2013-04-11 20:29:00,46.0,25.9,30.06,East,97,1.0,4.9,45,0.00,,,-99.99,FreeWX-Wi 1.02,2013-04-12 00:29:00,
2013-04-11 20:34:00,46.0,25.9,30.06,East,96,1.0,0.0,45,0.00,,,-99.99,FreeWX-Wi 1.02,2013-04-12 00:34:00,
2013-04-11 20:39:00,46.0,25.9,30.06,East,93,1.0,0.0,45,0.00,,,-99.99,FreeWX-Wi 1.02,2013-04-12 00:39:00,
2013-04-11 20:44:00,46.0,24.8,30.06,East,91,1.0,4.0,43,0.00,,,-99.99,FreeWX-Wi 1.02,2013-04-12 00:44:00,
2013-04-11 20:49:00,46.0,24.8,30.06,North,-999,0.0,4.0,43,0.00,,,-99.99,FreeWX-Wi 1.02,2013-04-12 00:49:00,
2013-04-11 20:54:00,45.9,24.1,30.06,North,-999,0.0,4.9,42,0.00,,,-99.99,FreeWX-Wi 1.02,2013-04-12 00:54:00,
2013-04-11 20:59:00,45.9,23.0,30.06,East,87,1.0,3.6,40,0.00,,,-99.99,FreeWX-Wi 1.02,2013-04-12 00:59:00,
2013-04-11 21:04:00,45.7,22.8,30.06,East,86,1.0,3.6,40,0.00,,,-99.99,FreeWX-Wi 1.02,2013-04-12 01:04:00,
2013-04-11 21:09:00,45.9,23.0,30.06,East,94,1.0,4.0,40,0.00,,,-99.99,FreeWX-Wi 1.02,2013-04-12 01:09:00,
2013-04-11 21:14:00,45.9,24.1,30.09,East,94,1.0,4.0,42,0.00,,,-99.99,FreeWX-Wi 1.02,2013-04-12 01:14:00,
2013-04-11 21:19:00,45.9,23.0,30.09,East,97,1.0,3.6,40,0.00,,,-99.99,FreeWX-Wi 1.02,2013-04-12 01:19:00,
2013-04-11 21:24:00,45.9,23.0,30.09,East,93,1.0,3.1,40,0.00,,,-99.99,FreeWX-Wi 1.02,2013-04-12 01:24:00,
2013-04-11 21:29:00,45.9,24.1,30.09,East,95,1.0,4.0,42,0.00,,,-99.99,FreeWX-Wi 1.02,2013-04-12 01:29:00,
2013-04-11 21:34:00,45.7,22.8,30.09,East,83,1.0,3.1,40,0.00,,,-99.99,FreeWX-Wi 1.02,2013-04-12 01:34:00,
2013-04-11 21:39:00,45.9,24.6,30.09,ENE,74,1.0,4.0,43,0.00,,,-99.99,FreeWX-Wi 1.02,2013-04-12 01:39:00,
2013-04-11 21:44:00,45.7,23.9,30.09,ENE,62,1.0,2.2,42,0.00,,,-99.99,FreeWX-Wi 1.02,2013-04-12 01:44:00,
2013-04-11 21:49:00,45.7,23.9,30.09,North,-999,0.0,0.0,42,0.00,,,-99.99,FreeWX-Wi 1.02,2013-04-12 01:49:00,
2013-04-11 21:54:00,45.7,23.9,30.09,NE,54,1.0,3.6,42,0.00,,,-99.99,FreeWX-Wi 1.02,2013-04-12 01:54:00,
2013-04-11 21:59:00,45.7,22.8,30.09,ENE,63,1.0,6.3,40,0.00,,,-99.99,FreeWX-Wi 1.02,2013-04-12 01:59:00,
2013-04-11 22:04:00,45.5,20.8,30.09,ENE,60,1.0,4.0,37,0.00,,,-99.99,FreeWX-Wi 1.02,2013-04-12 02:04:00,
2013-04-11 22:09:00,45.5,20.8,30.09,ENE,70,1.0,4.9,37,0.00,,,-99.99,FreeWX-Wi 1.02,2013-04-12 02:09:00,
2013-04-11 22:14:00,45.5,19.4,30.09,ENE,76,1.0,3.1,35,0.00,,,-99.99,FreeWX-Wi 1.02,2013-04-12 02:14:00,
2013-04-11 22:19:00,45.5,19.4,30.09,ENE,74,1.0,4.9,35,0.00,,,-99.99,FreeWX-Wi 1.02,2013-04-12 02:19:00,
2013-04-11 22:24:00,45.5,19.4,30.09,ENE,78,1.0,3.1,35,0.00,,,-99.99,FreeWX-Wi 1.02,2013-04-12 02:24:00,
2013-04-11 22:29:00,45.5,17.4,30.09,East,79,1.0,4.0,32,0.00,,,-99.99,FreeWX-Wi 1.02,2013-04-12 02:29:00,
2013-04-11 22:34:00,45.5,17.4,30.09,ENE,75,1.0,4.0,32,0.00,,,-99.99,FreeWX-Wi 1.02,2013-04-12 02:34:00,
2013-04-11 22:39:00,45.3,17.2,30.09,ENE,77,2.0,5.4,32,0.00,,,-99.99,FreeWX-Wi 1.02,2013-04-12 02:39:00,
2013-04-11 22:44:00,45.5,17.4,30.09,ENE,75,2.0,3.6,32,0.00,,,-99.99,FreeWX-Wi 1.02,2013-04-12 02:44:00,
2013-04-11 22:49:00,45.5,17.4,30.09,East,79,2.0,5.8,32,0.00,,,-99.99,FreeWX-Wi 1.02,2013-04-12 02:49:00,
2013-04-11 22:54:00,45.5,19.4,30.09,ENE,64,2.0,5.4,35,0.00,,,-99.99,FreeWX-Wi 1.02,2013-04-12 02:54:00,
2013-04-11 22:59:00,45.3,19.2,30.09,NE,55,2.0,3.6,35,0.00,,,-99.99,FreeWX-Wi 1.02,2013-04-12 02:59:00,
2013-04-11 23:04:00,45.3,17.2,30.09,NE,55,2.0,5.8,32,0.00,,,-99.99,FreeWX-Wi 1.02,2013-04-12 03:04:00,
2013-04-11 23:09:00,45.3,17.2,30.09,NE,55,2.0,4.9,32,0.00,,,-99.99,FreeWX-Wi 1.02,2013-04-12 03:09:00,
2013-04-11 23:14:00,45.3,19.2,30.09,ENE,64,1.0,2.2,35,0.00,,,-99.99,FreeWX-Wi 1.02,2013-04-12 03:14:00,
2013-04-11 23:19:00,45.3,17.2,30.09,ENE,73,1.0,3.1,32,0.00,,,-99.99,FreeWX-Wi 1.02,2013-04-12 03:19:00,
2013-04-11 23:24:00,45.3,17.2,30.09,East,79,1.0,0.0,32,0.00,,,-99.99,FreeWX-Wi 1.02,2013-04-12 03:24:00,
2013-04-11 23:29:00,45.3,15.8,30.09,ENE,77,1.0,3.6,30,0.00,,,-99.99,FreeWX-Wi 1.02,2013-04-12 03:29:00,
2013-04-11 23:34:00,45.5,15.8,30.09,ENE,76,1.0,3.6,30,0.00,,,-99.99,FreeWX-Wi 1.02,2013-04-12 03:34:00,
2013-04-11 23:39:00,45.5,15.8,30.09,ENE,72,1.0,3.6,30,0.00,,,-99.99,FreeWX-Wi 1.02,2013-04-12 03:39:00,
2013-04-11 23:44:00,45.5,13.5,30.09,ENE,59,1.0,4.0,27,0.00,,,-99.99,FreeWX-Wi 1.02,2013-04-12 03:44:00,
2013-04-11 23:49:00,45.5,13.5,30.09,NE,56,1.0,3.6,27,0.00,,,-99.99,FreeWX-Wi 1.02,2013-04-12 03:49:00,
2013-04-11 23:54:00,45.5,13.5,30.09,ENE,60,1.0,3.6,27,0.00,,,-99.99,FreeWX-Wi 1.02,2013-04-12 03:54:00,
2013-04-11 23:59:00,45.5,13.5,30.09,ENE,57,2.0,3.6,27,0.00,,,-99.99,FreeWX-Wi 1.02,2013-04-12 03:59:00,